Погода в Боре

Погода в Боре : погода сейчас, прогноз погоды и архив. Всё, что Вы хотите узнать о погоде в Боре!

Хотите узнать прогноз погоды в Боре? Тогда Вам сюда: Погода в Боре

Поиск расширенной информации на нашем сайте:

Другие новости

Новости СМИ2

Главная страница сайта

Новости сайта

02.10.2013

Напоминаем, что на нашем новом сайте вы можете получить высокодетализированные прогнозы погоды по пунктам России, СНГ и мира (включающие важные для авиации метеовеличины, такие как направление и скорость ветра, видимость, явления погоды, количество и форма облачности, нижняя и верхняя граница облачности), а также ознакомиться с разнообразными материалами по авиационной метеорологии и подборкой полезных ссылок на эту тему.

Сайт Метеоцентр.Азия посвящён разработке технологий оптимизации авиаметеорологического обслуживания, включая проектирование и перспективное создание нескольких автоматизированных авиаметеорологических систем:
- система выпуска высокодетальных прогностических карт явлений погоды для нижнего воздушного пространства по России и ближнему зарубежью;
- система верификации прогнозов TAF (выпускаемых синоптиками официальных АМСГ РФ и ближнего зарубежья) и AUTOTAF (выпускаемых сайтом Метеоцентр.Азия) - выявление ошибок, онлайн-сопоставление с фактической погодой METAR, автоматическое внесение коррективов в прогнозы при резком отклонении фактической погоды от прогноза, подсчёт оправдываемости прогнозов по элементам и в целом;
- система обработки, анализа и отображения авиаметеорологической информации для применения провайдерами метеорологической информации.

Рекомендуем: http://odeon-mebel.by/ детские кровати в витебске фото и цены.

Погода в Боре - сегодня

Время (UTC), дата Ветер
(°,м/с) 
Видим.   Явления Облачность Т
(°С)
Тd
(°С)
f(%) Тe
(°С)
Pmin
(гПа)
dP
(гПа)
Po
(мм)
O2
(г/м3)
Тmin Tmax R s Состояние
почвы
15 26.05.17 тихо ()   20000 м    8/3 600 м верхняя 
[Sc|Ci fib]
+6.9 -3.1 49 +7  1013.2  755  297           
18 26.05.17 310 (СЗ) 5{13}  н/о    9/9 600 м кучево-дожд. 
[Cb cap]
+3.1 -1 74 +1  1016.7  3.5  757  302           
21 26.05.17 290 (З) 20000 м    3/3 600 м 
[Sc]
+1.3 -3.5 70 1019.8  759  305           
00 27.05.17 290 (З) 50000 м    1/1 600 м 
[Cu hum]
+2.4 -4.3 61 +1  1021.6  761  304  +1.1        сухая 
03 27.05.17 300 (СЗ) 50000 м    8/6 600 м верхняя 
[Cu Sc|Ci fib]
+4.8 -6.8 43 +4  1022.8  762  302           
06 27.05.17 260 (З) 20000 м    9/4 600 м средняя, верхняя 
[Cu hum|Ac trans|Ci sp]
+7.8 -6 37 +8  1022.1  -0.5  761  299           
09 27.05.17 200 (Ю) 20000 м    10/6 600 м кучево-дожд., верхняя 
[Cb cap|Cs]
+8 -4 42 +8  1021  -1.1  760  298           
12 27.05.17 180 (Ю) 18000 м  слаб. ливневой дождь  10/10 600 м кучево-дожд. 
[Cb cap]
+6.5 +0.1 64 +6  1020  -1.1  760  299    +9.1  0.0     
15 27.05.17 140 (ЮВ) 16000 м  слаб. ливневой дождь  10/10 600 м кучево-дожд. 
[Cb cap]
+4.7 +4 95 +4  1017.9  -2.1  758  300           
18 27.05.17 120 (ЮВ) н/о  слаб. ливневой дождь  10/10 600 м кучево-дожд. 
[Cb cap]
+3.4 +2.9 97 +3  1016.7  -1.2  757  301           
21 27.05.17 090 (В) 20000 м  {ливн. осадки}  10/10 600 м кучево-дожд. 
[Cb cap]
+3.2 +2.7 97 +4  1015.5  -1.2  756  301           
00 28.05.17 070 (В) 20000 м  {ливн. осадки}  9/9 600 м 
[Sc]
+4.6 +3.6 93 +5  1015.6  0.1  756  299  +3      влажная 
03 28.05.17 100 (В) 50000 м    9/8 600 м кучево-дожд., верхняя 
[Cb cap|Ci fib]
+8.3 +4.4 76 +9  1015.9  0.4  757  295           
06 28.05.17 100 (В) 50000 м    3/3 600 м 
[Sc]
+13.4 +4.8 56 +14  1014.2  -1.5  755  289           
09 28.05.17 100 (В) 50000 м    8/0 средняя, верхняя 
[Ac trans|Ci fib]
+17.7 +5.6 45 +19  1012.8  -1.3  755  285           
12 28.05.17 120 (ЮВ) 50000 м    8/0 верхняя 
[Ci fib]
+18.5 +5.9 44 +19  1011.6  -1.1  754  283    +18.7       
15 28.05.17 080 (В) 20000 м    6/0 верхняя 
[Ci fib]
+15.4 +4 46 +17  1010.4  -1.4  753  286           
18 28.05.17 090 (В) н/о    3/0 верхняя 
[Ci fib]
+12.2 +4 57 +13  1009.7  -0.7  752  289           
21 28.05.17 070 (В) 20000 м    8/0 верхняя 
[Ci fib]
+8.5 +3.7 72 +10  1008.9  -0.9  751  293           
00 29.05.17 070 (В) 50000 м    8/0 верхняя 
[Ci fib]
+10.8 +4.1 63 +12  1007.7  -1.2  751  290  +8        сухая 
03 29.05.17 070 (В) 20000 м    9/8 600 м верхняя 
[Sc|Ci fib]
+16.3 +6 50 +17  1005.3  -2.3  749  284           
06 29.05.17 140 (ЮВ) 50000 м    9/4 600 м верхняя 
[Sc|Ci fib]
+23.9 +7.3 34 +24  1002.7  -2.3  747  276           
09 29.05.17 140 (ЮВ) 20000 м    9/8 600 м верхняя 
[Sc|Ci fib]
+24.2 +6.4 32 +24  1001.6  -1.1  746  275           
12 29.05.17 140 (ЮВ) 50000 м    9/8 600 м кучево-дожд., верхняя 
[Cb cap|Ci fib]
+23.5 +6.1 33 +24    -0.5  746  276    +25.3       
15 29.05.17 100 (В) 20000 м    9/3 600 м верхняя 
[Sc|Ci fib]
+19.4 +7.2 45 +21  1000.9  -0.3  746  279           
Время (UTC), дата Ветер
(°,м/с) 
Видим.   Явления Облачность Т
(°С)
Тd
(°С)
f(%) Тe
(°С)
Pmin
(гПа)
dP
(гПа)
Po
(мм)
O2
(г/м3)
Тmin Tmax R s Состояние
почвы

Для получения пояснительной информации подведите курсор к названию столбца.

ПОГОДА в Боре - архив

Всё, что Вы хотите узнать о погоде в Боре - удобно и подробно!

Выберите нужную дату (начиная с 1 января 2015* года) и нажмите кнопку "Найти".
Будут отображены архивные сводки погоды по пункту Бор, начиная с указанной даты.


Отображать данные в формате CSV (для использования в таблицах Excel)


Внимание! Наш архив погоды предназначен исключительно для личного некоммерческого использования в познавательных целях. Если Вам необходимы официальные справки о состоянии погоды (для производственных, юридических, коммерческих и т.п. целей), обращайтесь в органы Росгидромета.

*Примечание: данная дата относится к архиву по метеостанциям СССР (Россия, СНГ, Балтия).
Архив по метеостанциям Зарубежной Европы и Азии (кроме Китая) хранится 10 дней, по другим регионам земного шара (Китай, Африка, Америка, Австралия, Океания) - 1 день.

Бор - район местоположения метеостанции


Название, широта, долгота, высота метеостанции:
Бор 61.6°ш. 90°д. 58 м над ур. моря [Российская Федерация]

Дополнительная информация

В oтличие oт бoльшинства пoгoдных сайтoв мы публикуем пoдрoбную метеoинфoрмацию в детальнoм прoфессиoнальнoм фoрмате.

Характеристики температуры и влажнoсти вoздуха измеряются на высoте 2 м в тени вдали oт зданий и деревьев.
Скoрoсть ветра измеряется на высoте 10 м (на урoвне рoста челoвека скoрoсть ветра ниже в 1.5-2 раза). Если метеoстанция нахoдится в гoрoде или в лесу, тo скoрoсть ветра занижена на 2-4 м/с пo сравнению с oткрытым местoм. Скoрoсть ветра над акватoриями крупных рек и oзёр, а также на вершинах хoлмoв на 2-5 м/с выше, чем в oбычных услoвиях.
Атмoсфернoе давление в разных тoчках местнoсти мoжет значительнo oтличаться oт давления на метеoстанции, в зависимoсти oт услoвий рельефа (при пoдъёме на 10 м давление пoнижается примернo на 1 мм рт.ст.).